sat.trackr.live / text

‹ back to catalog

STARLINK-34296

NORAD 64216 · 2025-117P

PAYLOAD ACTIVE UNKNOWN

§ Identity

Operator
Country
US
Launch date
2025-05-31
Launch site
AFWTR
Launch vehicle
Mass (kg)
RCS (m²)

Purposes: comms

External: N2YO · Heavens-Above · Gunter

§ Orbital elements

Epoch: 2026-05-25T00:24:53.200224Z

Period
94.10 min
Inclination
53.1584°
Eccentricity
0.0001326
Mean motion
15.30210251 rev/d
Perigee alt
474.3 km
Apogee alt
476.1 km
Semi-major
6,853.3 km
B*
5.5363e-4
RAAN
44.9379°
Arg perigee
100.6429°
Mean anomaly
259.4721°
Rev number
5,624

§ Raw data

STARLINK-342961 64216U 25117P   26145.01728241  .00016078  00000+0  55363-3 0  99942 64216  53.1584  44.9379 0001326 100.6429 259.4721 15.30210251 56244

JSON: /api/v1/satellites/64216 · /tle

For live sub-satellite position, see the globe view (requires WebGL).

§ Visibility from observer

Set your observer location to see the next 7 days of passes ≥ 10°. The values pass through the URL so the page stays shareable.

No JS? Fill the form by hand. The geolocation button needs JavaScript.